Flag for U.S.A. Weather past 2 weeks in Santa Barbara, California, U.S.A.

Now
73 °F

Clear.


Feels Like: 77 °F
Forecast: 53 / 66 °F
Wind: 14 mph from Northeast

Location: Santa Barbara Municipal Airport

Current Time: Dec 21, 2014 at 7:34:14 PM

Latest Report: Dec 21, 2014 at 6:53 PM


Visibility: 10 mi

Pressure: 30.05 "Hg

Humidity: 40%

Dew point: 47 °F

Location of Santa BarbaraLocation

Historic Weather in Santa Barbara — Graph

°F

Santa Barbara temperature yesterday

Maximum temperature yesterday: 68 °F (at 2:53 PM)
Minimum temperature yesterday: 47 °F (at 4:53 AM)
Average temperature yesterday: 59 °F

Past Weeks' High & Low Weather Summary

 TemperatureHumidityPressure
High78 °F (Dec 21, 1:53 PM)97% (Dec 7, 12:53 AM)30.24 "Hg (Dec 7, 12:53 AM)
Low45 °F (Dec 14, 12:53 AM)37% (Dec 13, 1:53 PM)29.73 "Hg (Dec 11, 11:02 PM)
Average58 °F77%30.05 "Hg
* Reported Dec 6 5:53 PM — Dec 21 5:53 PM, Santa Barbara, Weather by CustomWeather, © 2014

Note: Actual official high and low records may vary slightly from our data, if they occured in-between our weather recording intervals... More about our weather records

Advertising

Santa Barbara weather history for previous 24 hours

 ConditionsComfort  
Time TempWeatherWind HumidityBarometerVisibility
5:53 PM
Dec 21
72 °FPassing clouds.17 mph43%30.06 "Hg10 mi
4:53 PM72 °FOvercast.17 mph43%30.05 "Hg10 mi
3:53 PM74 °FHigh level clouds.14 mph43%30.04 "Hg10 mi
2:53 PM73 °FHigh level clouds.10 mph51%30.04 "Hg10 mi
1:53 PM78 °FPartly sunny.7 mph42%30.03 "Hg10 mi
12:53 PM73 °FPartly sunny.9 mph51%30.06 "Hg10 mi
11:53 AM70 °FPartly sunny.7 mph55%30.10 "Hg10 mi
10:53 AM66 °FSunny.3 mph68%30.13 "Hg10 mi
9:53 AM64 °FPartly sunny.3 mph73%30.14 "Hg10 mi
8:53 AM60 °FSunny.No wind80%30.14 "Hg10 mi
7:53 AM55 °FPartly sunny.No wind90%30.13 "Hg10 mi
6:53 AM53 °FPassing clouds.No wind89%30.13 "Hg10 mi
5:53 AM56 °FClear.3 mph87%30.11 "Hg10 mi
4:53 AM55 °FClear.5 mph83%30.11 "Hg10 mi
3:53 AM60 °FClear.5 mph78%30.11 "Hg10 mi
2:53 AM59 °FClear.3 mph69%30.12 "Hg10 mi
1:53 AM62 °FClear.12 mph65%30.12 "Hg10 mi
12:53 AM67 °FClear.9 mph51%30.11 "Hg10 mi
11:53 PM
Dec 20
67 °FClear.15 mph53%30.12 "Hg10 mi
10:53 PM68 °FClear.25 mph51%30.13 "Hg10 mi
9:53 PM65 °FClear.22 mph61%30.14 "Hg10 mi
8:53 PM64 °FPassing clouds.8 mph68%30.14 "Hg10 mi
7:53 PM62 °FClear.9 mph78%30.14 "Hg10 mi
Weather by CustomWeather, © 2014

See weather overviewHow to use our weather pages